Regional Weather Roundup
Issued by NWS

Home | Current Version | Previous Version | Graphics & Text | Print | Product List | Glossary Off
Versions: 1 2 3 4 5 6 7 8 9 10 11 12 13 14 15 16 17 18 19 20 21 22 23 24 25 26 27 28 29 30 31 32 33 34 35 36 37 38 39 40 41 42 43 44 45 46 47 48 49 50

000
ASUS43 KMPX 170710
RWRMN
WEATHER ROUNDUP FOR MINNESOTA
NATIONAL WEATHER SERVICE TWIN CITIES/CHANHASSEN MN
100 AM CST WED JAN 17 2018


NOTE: "FAIR" INDICATES FEW OR NO CLOUDS BELOW 12,000 FEET WITH NO
SIGNIFICANT WEATHER AND/OR OBSTRUCTIONS TO VISIBILITY. N/A MEANS
CURRENT SKY AND/OR WEATHER CONDITIONS ARE NOT AVAILABLE.

MNZ060>063-068>070-170800-
   Twin Cities Metro

CITY           SKY/WX    TMP DP  RH WIND       PRES   REMARKS
TWIN CITIES    FAIR      -1  -4  87 SW6       30.49F WCI -13
ST PAUL        FAIR       0  -5  79 CALM      30.52F
CRYSTAL        FAIR      -1  -7  75 S5        30.47F WCI -11
BLAINE         FAIR       1  -2  85 SW7       30.46F WCI -11
LAKEVILLE      FAIR      -6  -8  92 CALM      30.47F
EDEN PRAIRIE   FAIR      -3  -7  82 SW5       30.47F WCI -13
SOUTH ST PAUL  FAIR      -2  -7  81 CALM      30.50F
LAKE ELMO      FAIR      -2  -6  84 S5        30.49F WCI -12
$$
MNZ001>005-007-008-013>017-022>024-027-028-170800-
   Northwest Minnesota

CITY           SKY/WX    TMP DP  RH WIND       PRES   REMARKS
BEMIDJI        FAIR       5  -4  66 SW6       30.23F WCI  -6
HALLOCK        FAIR       5   0  78 S22       30.14F WCI -16
ROSEAU         FAIR       9   1  72 SW21      30.12F WCI -11
WARROAD        FAIR       7   0  72 SW17      30.11F WCI -12
THIEF RVR FALL FAIR       4  -2  76 SW21      30.21F WCI -17
CROOKSTON      FAIR       3   0  85 S23       30.25F WCI -19
FOSSTON        FAIR       1  -4  78 S20       30.25F WCI -20
DETROIT LAKES  FAIR       1  -4  78 S6        30.29F WCI -10
MOORHEAD       FAIR       3  -4  72 S13G18    30.32F WCI -14
PARK RAPIDS    FAIR       1  -5  75 SW8       30.28F WCI -13
MAHNOMEN       FAIR       3  -4  73 S15       30.27F WCI -15
$$
MNZ006-009>011-018-025>026-170800-
   North Central Minnesota

CITY           SKY/WX    TMP DP  RH WIND       PRES   REMARKS
BAUDETTE       FAIR       8  -2  63 SW15G25   30.12F WCI  -9
FLAG ISLAND    FAIR       7  -2  66 SW16      30.06F WCI -11
INTL FALLS     FAIR       7  -5  57 SW14G21   30.14F WCI -10
WASKISH        FAIR       9   0  66 SW13G18   30.19F WCI  -7
BIG FORK       FAIR       7  -4  61 SW12      30.21F WCI  -9
LONGVILLE      FAIR       1  -4  78 SW5       30.28F WCI  -8
GRAND RAPIDS   FAIR       5  -4  66 SW6       30.29F WCI  -6
CRANE LAKE     FAIR       7  -2  66 S7        30.18F WCI  -5
ORR            FAIR       7  -6  56 S6        30.16F WCI  -3
COOK           FAIR       5  -2  72 SW9       30.20F WCI  -9
WALKER         FAIR       4  -4  66 SW14      30.26F WCI -13
$$
MNZ012-019>021-037-170800-
   Northeast Minnesota

CITY           SKY/WX    TMP DP  RH WIND       PRES   REMARKS
DULUTH         FAIR       5  -3  69 W17       30.25F WCI -14
ELY            FAIR       7   0  72 SW10      30.18F WCI  -8
HIBBING        FAIR       2  -4  76 SW6       30.24F WCI  -9
EVELETH        FAIR       3  -6  68 SW8       30.25F WCI -11
DULUTH HARBOR  FAIR       5  -2  72 SW17      30.35F WCI -14
TWO HARBORS    FAIR      10   0  61 SW9       30.24F WCI  -2
SILVER BAY     MOCLDY    10   1  67 SW6       30.22F WCI   1
GRAND MARAIS     N/A     16   5  62 W9        30.22F WCI   4
G MARAIS ARPRT FAIR       9  -2  61 SW8       30.10F WCI  -4
$$
MNZ029>031-032-039>041-046>048-054>057-064-170800-
   West Central Minnesota

CITY           SKY/WX    TMP DP  RH WIND       PRES   REMARKS
FERGUS FALLS   FAIR       1  -6  71 S7        30.39F WCI -11
WHEATON        CLOUDY     3  -4  72 S10       30.36F WCI -12
MORRIS         CLOUDY     0  -6  78 S9        30.36F WCI -16
ALEXANDRIA     FAIR       2  -4  76 SW12      30.34F WCI -15
ELBOW LAKE     FAIR       0  -5  81 S10       30.35F WCI -17
WADENA         FAIR      -2  -6  84 SW5       30.31F WCI -12
GLENWOOD       FAIR       0  -4  85 S9        30.37F WCI -16
APPLETON       CLOUDY     3  -4  72 S6        30.40F WCI  -8
BENSON         CLOUDY     0  -6  78 SW8       30.41F WCI -15
ORTONVILLE     CLOUDY     3  -2  78 S6        30.37F WCI  -8
MADISON        CLOUDY     9   0  66 S8        30.41F WCI  -4
WILLMAR        FAIR       1  -4  78 CALM      30.45F
$$
MNZ033>034-036-042>043-049>051-058-059-170800-
   Central Minnesota

CITY           SKY/WX    TMP DP  RH WIND       PRES   REMARKS
ST CLOUD       FAIR      -3  -6  87 S8        30.42F WCI -18
SAUK CENTRE      N/A      1  -4  78 SW7       30.38F WCI -12
PAYNESVILLE    FAIR       3  -2  80 SW10      30.41F WCI -12
AITKIN         FAIR       1  -6  71 SW6       30.31F WCI -10
PINE RIVER     FAIR       0  -6  78 SW3       30.33F
BRAINERD       FAIR       1  -5  75 S9        30.34F WCI -14
STAPLES        FAIR      -2  -6  84 S5        30.32F WCI -12
LONG PRAIRIE   FAIR       1  -4  78 S8        30.36F WCI -12
LITTLE FALLS   FAIR       0  -8  71 S5        30.38F WCI -10
LITCHFIELD     FAIR       1  -2  85 SW5       30.43F WCI  -8
BUFFALO        FAIR      -2  -6  83 S3        30.46F
MAPLE LAKE     FAIR       0  -4  86 MISG      30.45F
HUTCHINSON     FAIR       1  -3  82 SW7       30.46F WCI -12
$$
MNZ037-044-045-052-053-170800-
   East Central Minnesota

CITY           SKY/WX    TMP DP  RH WIND       PRES   REMARKS
PRINCETON      FAIR      -2  -6  84 S6        30.42F WCI -14
MORA           FAIR       0  -6  78 SW5       30.42F WCI -10
CAMBRIDGE      FAIR       0  -9  65 S5        30.44F WCI -10
RUSH CITY      FAIR      -2  -6  83 S6        30.43F WCI -14
MOOSE LAKE     FAIR       1  -6  71 CALM      30.33F
HINCKLEY       FAIR       0  -4  85 SW7       30.40F WCI -13
CLOQUET        FAIR       1  -6  71 SW6       30.30F WCI -10
MCGREGOR       FAIR       3  -2  78 S7        30.32F WCI  -9
$$
MNZ071>073-080-081-089-090-097-098-170800-
   Southwest Minnesota

CITY           SKY/WX    TMP DP  RH WIND       PRES   REMARKS
MONTEVIDEO     CLOUDY     1  -4  78 SW7       30.42F WCI -11
GRANITE FALLS  CLOUDY     1  -4  78 S8        30.45F WCI -12
CANBY          CLOUDY    10   1  67 SW21G30   30.38F WCI -10
MARSHALL       CLOUDY     7  -1  70 SW10G17   30.42F WCI  -8
REDWOOD FALLS  CLOUDY     1  -4  79 SW9       30.47F WCI -14
OLIVIA         CLOUDY     3  -2  78 S8        30.45F WCI -10
PIPESTONE      CLOUDY     0  -6  78 SW10      30.41F WCI -17
WINDOM         CLOUDY     1 -13  51 S12       30.44F WCI -15
WORTHINGTON    CLOUDY     1  -4  79 SW12      30.45F WCI -16
JACKSON        CLOUDY     0  -4  85 SW9       30.47F WCI -16
SLAYTON        CLOUDY     2  -4  77 SW18      30.42F WCI -19
$$
MNZ065>067-074>077-082>085-091>093-170800-
   South Central Minnesota

CITY           SKY/WX    TMP DP  RH WIND       PRES   REMARKS
MANKATO        FAIR      -3  -6  87 SW6       30.51F WCI -15
NEW ULM        CLOUDY     0  -6  78 SW9       30.49F WCI -16
ST JAMES       CLEAR      0  -6  78 S8        30.49F WCI -15
FAIRMONT       CLOUDY     0  -4  83 SW9       30.51F WCI -15
GLENCOE        FAIR       0  -4  85 SW5       30.46F WCI -10
FARIBAULT      FAIR      -6  -9  84 SW3       30.50F
OWATONNA       FAIR      -2  -6  84 SW10      30.48F WCI -19
WASECA         FAIR       0  -6  78 SW7       30.50F WCI -13
ALBERT LEA     FAIR      -2  -8  78 CALM      30.50F
$$
MNZ078>079-086>088-094>096-170800-
   Southeast Minnesota

CITY           SKY/WX    TMP DP  RH WIND       PRES   REMARKS
ROCHESTER      FAIR      -2  -5  87 SW9       30.47F WCI -18
RED WING       FAIR      -8 -15  71 CALM      30.51F
STANTON        FAIR      -3  -7  82 S6        30.49S WCI -15
DODGE CENTER   FAIR      -6  -9  84 SW6       30.45F WCI -18
WINONA         FAIR      -2  -8  78 CALM      30.54F
AUSTIN         FAIR      -6  -9  84 CALM      30.50F
PRESTON        FAIR      -4  -8  82 SW5       30.50S WCI -15
$$
ABBREVIATIONS USED IN REMARKS
   TC - TEMPERATURES IN CELSIUS
  WCI - WIND CHILL INDEX
   HX - HEAT INDEX
  VSB - VISIBILITY
$$




USA.gov is the U.S. government's official web portal to all federal, state and local government web resources and services.